GW3786 Weather Reports


time (UTC)temp
C
wind
direction
speed
KPH
gust
KPH
rain 1hr
cm
rain 24hr
cm
rain mn
cm
humidity
%
barometer
mb
20260508135551 11 231 1.6 9.7 0.00 0.00 0.00 69 1012.9
20260508133349 11 214 3.2 9.7 0.00 0.00 0.00 68 1012.7
20260508131846 10 199 3.2 14.5 0.00 0.00 0.00 68 1012.7
20260508130347 10 255 3.2 12.9 0.00 0.00 0.00 70 1012.8
20260508124846 9 288 3.2 9.7 0.00 0.00 0.00 72 1012.8
20260508123347 9 244 3.2 11.3 0.00 0.00 0.00 72 1012.7
20260508121847 8 310 3.2 16.1 0.00 0.00 0.00 74 1012.5
20260508120346 8 236 3.2 9.7 0.00 0.00 0.00 75 1012.7
20260508114842 7 141 1.6 8.0 0.00 0.00 0.00 76 1012.4
20260508114031 7 203 1.6 8.0 0.00 0.00 0.00 77 1012.3
20260508111840 7 212 1.6 6.4 0.00 0.00 0.00 77 1012.2
20260508110340 6 198 0.0 6.4 0.00 0.00 0.00 79 1012.1
20260508104840 6 269 0.0 11.3 0.00 0.00 0.00 81 1012.1
20260508103341 5 181 0.0 6.4 0.00 0.00 0.00 82 1011.8
20260508101840 5 173 1.6 6.4 0.00 0.00 0.00 82 1011.6
20260508101741 5 148 0.0 8.0 0.00 0.00 0.00 83 1011.5
20260508094836 5 142 0.0 3.2 0.00 0.00 0.00 84 1011.6
20260508094047 5 139 0.0 4.8 0.00 0.00 0.00 86 1011.7
20260508091836 5 151 0.0 1.6 0.00 0.00 0.00 87 1011.8
20260508090333 5 225 0.0 3.2 0.00 0.00 0.00 87 1011.9
20260508084832 5 169 0.0 1.6 0.00 0.00 0.00 86 1012.1
20260508083332 5 170 1.6 3.2 0.00 0.00 0.00 86 1012.1
20260508081830 5 165 1.6 3.2 0.00 0.00 0.00 85 1012.1
20260508080330 6 172 0.0 3.2 0.00 0.00 0.00 83 1012.1
20260508074830 7 156 0.0 1.6 0.00 0.00 0.00 82 1012.2
20260508073327 7 156 0.0 1.6 0.00 0.00 0.00 80 1012.1
20260508072522 7 119 0.0 0.0 0.00 0.00 0.00 77 1012.3
20260508071032 7 119 0.0 1.6 0.00 0.00 0.00 76 1012.8
20260508064822 8 118 0.0 6.4 0.00 0.00 0.00 75 1012.8
20260508063322 8 263 1.6 6.4 0.00 0.00 0.00 74 1013.3
20260508062518 8 230 1.6 9.7 0.00 0.00 0.00 74 1013.2
20260508060322 7 248 3.2 12.9 0.00 0.00 0.00 75 1013.5
20260508054821 7 288 0.0 3.2 0.00 0.00 0.00 83 1013.4
20260508053322 7 158 0.0 1.6 0.00 0.00 0.00 81 1012.5
20260508051821 7 158 0.0 1.6 0.00 0.00 0.00 80 1012.5
20260508050321 7 158 1.6 3.2 0.00 0.00 0.00 80 1012.4
20260508044817 6 181 0.0 1.6 0.00 0.00 0.00 81 1012.7
20260508043318 6 168 1.6 3.2 0.00 0.00 0.00 80 1012.7
20260508041817 6 166 0.0 3.2 0.00 0.00 0.00 82 1012.8
20260508040319 6 168 1.6 3.2 0.00 0.00 0.00 81 1012.8
20260508034817 6 211 0.0 3.2 0.00 0.00 0.00 80 1013.0
20260508034707 6 156 0.0 1.6 0.00 0.00 0.00 80 1012.9
20260508031816 6 191 0.0 0.0 0.00 0.00 0.00 81 1013.0
20260508030316 6 191 0.0 1.6 0.00 0.00 0.00 78 1012.8
20260508024814 6 163 0.0 1.6 0.00 0.00 0.00 80 1012.9
20260508023314 6 163 0.0 1.6 0.00 0.00 0.00 78 1012.8
20260508021815 6 163 0.0 1.6 0.00 0.00 0.00 74 1012.7
20260508020312 6 163 1.6 3.2 0.00 0.00 0.00 75 1012.9
20260508014809 7 164 0.0 0.0 0.00 0.00 0.00 77 1012.7
20260508014010 7 164 0.0 1.6 0.00 0.00 0.00 74 1012.5
20260508011807 7 164 0.0 1.6 0.00 0.00 0.00 72 1012.5
20260508010307 7 164 1.6 1.6 0.00 0.00 0.00 70 1012.3
20260508004806 8 164 0.0 1.6 0.00 0.00 0.00 67 1012.4
20260508003304 8 164 1.6 3.2 0.00 0.00 0.00 60 1012.2
20260508001804 10 187 0.0 3.2 0.00 0.00 0.00 54 1012.1
20260508000305 11 248 1.6 6.4 0.00 0.00 0.00 50 1012.1
20260507234804 12 203 1.6 12.9 0.00 0.00 0.00 48 1012.0
20260507233304 12 276 3.2 9.7 0.00 0.00 0.00 49 1011.9
20260507232503 12 345 3.2 9.7 0.00 0.00 0.00 49 1011.9
20260507230304 11 293 4.8 16.1 0.00 0.00 0.00 50 1012.1
20260507224805 12 295 4.8 17.7 0.00 0.00 0.00 47 1012.0
20260507223303 12 288 4.8 11.3 0.00 0.00 0.00 50 1012.1
20260507223156 12 315 6.4 14.5 0.00 0.00 0.00 51 1012.2
20260507220959 11 285 8.0 16.1 0.00 0.00 0.00 52 1012.2
20260507214759 11 307 8.0 22.5 0.00 0.00 0.00 51 1012.0
20260507213259 12 290 9.7 24.1 0.00 0.00 0.00 48 1011.9
20260507211759 12 292 12.9 25.7 0.00 0.00 0.00 48 1011.7
20260507210259 12 224 9.7 32.2 0.00 0.00 0.00 51 1011.8
20260507205457 12 298 9.7 25.7 0.00 0.00 0.00 51 1011.6
20260507203300 11 312 12.9 27.4 0.00 0.00 0.00 51 1011.6
20260507201759 11 308 8.0 22.5 0.00 0.00 0.00 52 1011.8
20260507200300 11 279 9.7 19.3 0.00 0.00 0.00 53 1011.7
20260507194759 12 222 6.4 16.1 0.00 0.00 0.00 54 1011.8
20260507193259 11 267 11.3 20.9 0.00 0.00 0.00 53 1011.8
20260507191758 11 280 6.4 19.3 0.00 0.00 0.00 56 1011.9
20260507190253 11 353 6.4 24.1 0.00 0.00 0.00 59 1012.0
20260507184754 11 316 8.0 22.5 0.00 0.00 0.00 57 1012.0
20260507183253 11 293 8.0 20.9 0.00 0.00 0.00 58 1012.1
20260507181753 12 304 8.0 22.5 0.00 0.00 0.00 58 1012.0
20260507180253 11 298 8.0 20.9 0.00 0.00 0.00 57 1012.0
20260507174752 11 196 8.0 19.3 0.00 0.00 0.00 57 1012.2
20260507173246 11 252 8.0 22.5 0.00 0.00 0.00 57 1012.3
20260507171747 11 229 9.7 19.3 0.00 0.00 0.00 56 1012.7
20260507170246 11 264 8.0 20.9 0.00 0.00 0.00 58 1012.7
20260507164747 11 164 6.4 20.9 0.00 0.00 0.00 55 1012.9
20260507163247 11 302 8.0 17.7 0.00 0.00 0.00 56 1012.8
20260507161748 10 216 8.0 16.1 0.00 0.00 0.00 57 1012.7
20260507160247 10 290 6.4 17.7 0.00 0.00 0.00 59 1012.7
20260507154747 10 295 6.4 20.9 0.00 0.00 0.00 62 1012.8
20260507153952 10 300 8.0 17.7 0.00 0.00 0.00 62 1012.8
20260507152441 10 283 6.4 17.7 0.00 0.00 0.00 63 1012.5
20260507150950 10 279 4.8 17.7 0.00 0.00 0.00 59 1012.7
20260507145455 9 285 6.4 14.5 0.00 0.00 0.00 64 1012.5
20260507143246 9 271 4.8 11.3 0.00 0.00 0.00 64 1012.7
20260507141747 8 302 4.8 12.9 0.00 0.00 0.00 68 1012.8
20260507141647 8 302 3.2 11.3 0.00 0.00 0.00 69 1012.9